Location: Krakow
(50.0212°N, 19.9423°E)
Time: 13:54:59
(UTC+02:00)

NOAA 18 - Pass Details

Date: 02 May 2025
Orbit: 837 x 857 km, 98.8° (Epoch: 14 May)

Event Time Altitude Azimuth Distance (km) Brightness Sun altitude
Exits shadow 22:00:06 23° 125° (SE) 1,729 6.2 -15.8°
Maximum altitude 22:03:09 46° 66° (ENE) 1,148 5.8 -16.1°
Drops below altitude 10° 22:08:25 10° 355° (N) 2,502 8.5 -16.6°
Sets 22:10:52 0° 349° (N) 3,442 9.5 -16.9°
